Regional Weather Roundup
Issued by NWS

Home | Current Version | Previous Version | Text Only | Print | Product List | Glossary On
Versions: 1 2 3 4 5 6 7 8 9 10 11 12 13 14 15 16 17 18 19 20 21 22 23 24 25 26 27 28 29 30 31 32 33 34 35 36 37 38 39 40 41 42 43 44 45 46 47 48 49 50
703
ASUS44 KJAN 262010
RWRMS

MISSISSIPPI HOURLY WEATHER ROUNDUP
NATIONAL WEATHER SERVICE JACKSON MS
300 PM CDT SUN MAR 26 2017

NOTE: "FAIR: INDICATES FEW OR NO CLOUDS BELOW 12,000 FEET WITH NO
SIGNIFICANT WEATHER AND/OR OBSTRUCTIONS TO VISIBILITY.

MSZ001>002-007>008-010>013-018>021-025>028-034>036-262100-
NORTHWEST MISSISSIPPI

CITY           SKY/WX    TMP DP  RH WIND       PRES   REMARKS
CLARKSDALE     MOSUNNY   73  57  56 S7G16     29.96F
GREENWOOD      MOSUNNY   77  57  50 S9        29.96F
GREENVILLE     SUNNY     75  52  44 SW12      29.95F
OLIVE BRANCH   MOSUNNY  N/A N/A N/A SW14      29.95S
OXFORD         FAIR      73  50  43 SW8G20    29.98F
$$

MSZ003>006-009-014>017-022>024-029>033-037>039-262100-
NORTHEAST MISSISSIPPI

CITY           SKY/WX    TMP DP  RH WIND       PRES   REMARKS
COLUMBUS AFB   MOSUNNY   76  58  53 S10G21    29.97F
STARKVILLE     MOCLDY    77  55  47 SW5       29.99F
TUPELO         MOSUNNY   77  52  41 SW14      29.97F
$$

MSZ040-058-262100-
CENTRAL MISSISSIPPI

CITY           SKY/WX    TMP DP  RH WIND       PRES   REMARKS
JACKSON INTL   MOSUNNY   83  56  39 SW13G23   29.97F
JACKSON HAWKNS MOSUNNY   82  56  40 S13       29.97F
MADISON        FAIR      79  57  47 S7        29.97F
MERIDIAN KEY   PTSUNNY   79  61  53 SW13      30.00F
MERIDIAN NAS   MOSUNNY   79  57  46 S8G17     30.00F
RAYMOND        FAIR      82  59  44 SW12G17   29.96F
$$

MSZ059>079-262100-
SOUTH MISSISSIPPI

CITY           SKY/WX    TMP DP  RH WIND       PRES   REMARKS
BROOKHAVEN     FAIR      84  61  45 S10       30.00F
HATTIESBURG    MOSUNNY   81  60  48 SW7       30.01F
MCCOMB         MOSUNNY   80  59  48 S10       29.99F
NATCHEZ        SUNNY     81  63  54 SW9       29.96F
PINE BELT      PTSUNNY   81  61  50 S10       30.02F
$$

MSZ080>082-262100-
COASTAL MISSISSIPPI

CITY           SKY/WX    TMP DP  RH WIND       PRES   REMARKS
BAY ST LOUIS   PTSUNNY   79  63  57 S12       30.02F
BILOXI         SUNNY     77  70  78 S9        30.04F
PASCAGOULA     MOSUNNY   79  62  56 S9        30.04F
GULFPORT       MOSUNNY   78  68  71 S12       30.03F
$$

LAZ007>009-015>016-023>026-262100-
NORTHEAST LOUISIANA

CITY           SKY/WX    TMP DP  RH WIND       PRES   REMARKS
BASTROP        FAIR      81  54  39 S7        29.95F
TALLULAH/VBURG SUNNY     82  56  40 S9        29.95F
$$




USA.gov is the U.S. government's official web portal to all federal, state and local government web resources and services.